TIANMU-1 06

Last updated on Sun Apr 12 2026 00:02:27 GMT+0000 (Coordinated Universal Time)

1 55976U 23039D 26101.53966154 .00013459 00000+0 27868-3 0 9993 2 55976 97.5201 273.2164 0002925 17.4438 342.6911 15.45893201170549
UTC large
Height (km)
Speed (km/s)
/
Latitude / Longitude
Inclination (degrees)
Orbital Period (minutes)
Azimuth
Elevation
Range (km)
Doppler Factor

Next 0 passes for location: London (51.5072 / 0.1276)

Sorry there are no passes over London.
TIANMU-1 06